This is the latest recevied weather packets stored in our database for station/object N0LTM. If no packets are shown the sender has not sent any weather packets the latest 10 day(s).
| Time | Temp. | Humidity | Pressure | Rain* | Wind** | Luminosity | Snow |
|---|---|---|---|---|---|---|---|
| 1777631760 | 3.89° C | 95% | 1015.7 hPa | 0 mm | - | - | - |
| 1777631154 | 3.89° C | 95% | 1015.7 hPa | 0 mm | - | - | - |
| 1777630856 | 3.33° C | 95% | 1015.7 hPa | 0 mm | - | - | - |
| 1777628152 | 3.89° C | 94% | 1015.6 hPa | 0 mm | - | - | - |
| 1777627552 | 3.89° C | 94% | 1015.4 hPa | 0 mm | - | - | - |
| 1777627259 | 3.89° C | 94% | 1015.3 hPa | 0 mm | - | - | - |
| 1777626057 | 3.89° C | 94% | 1015.3 hPa | 0 mm | - | - | - |
| 1777622756 | 3.89° C | 94% | 1015 hPa | 1.27 mm | - | - | - |
| 1777621856 | 4.44° C | 93% | 1015.1 hPa | 1.02 mm | - | - | - |
| 1777620654 | 4.44° C | 92% | 1015.1 hPa | 0.51 mm | - | - | - |
| 1777616457 | 3.89° C | 91% | 1014.8 hPa | 0 mm | - | - | - |
| 1777614956 | 3.89° C | 90% | 1014.9 hPa | 0 mm | - | - | - |
| 1777614055 | 3.89° C | 90% | 1015.1 hPa | 0 mm | - | - | - |
| 1777613454 | 3.89° C | 89% | 1015.3 hPa | 0 mm | - | - | - |
| 1777613156 | 3.89° C | 89% | 1015.2 hPa | 0.25 mm | - | - | - |
| 1777611056 | 4.44° C | 88% | 1015 hPa | 0.25 mm | - | - | - |
| 1777609855 | 4.44° C | 86% | 1015 hPa | 0.25 mm | - | - | - |
| 1777609555 | 4.44° C | 86% | 1015.1 hPa | 0 mm | - | - | - |
| 1777608356 | 4.44° C | 84% | 1015.4 hPa | 0.25 mm | - | - | - |
| 1777602357 | 4.44° C | 80% | 1015.5 hPa | 0 mm | - | - | - |
| 1777600557 | 4.44° C | 82% | 1015.2 hPa | 0 mm | - | - | - |
| 1777600255 | 4.44° C | 82% | 1015 hPa | 0 mm | - | - | - |
| 1777599656 | 4.44° C | 83% | 1015 hPa | 0 mm | - | - | - |
| 1777599356 | 4.44° C | 83% | 1015 hPa | 0 mm | - | - | - |
| 1777599057 | 4.44° C | 84% | 1015.1 hPa | 0 mm | - | - | - |
* Rain latest hour (hover to see other rain measurements)
** Current wind speed in m/s (hover to see current wind gust speed)